Tracking 28790 objects as of 18-Apr-2024
HD Live streaming from Space Station
objects crossing your sky now

CZ-3C DEB

Track CZ-3C DEB now!


NORAD ID: 39339
Int'l Code: 2010-057D
Perigee: 745.6 km
Apogee: 37,308.0 km
Inclination: 20.4 °
Period: 671.4 minutes
Semi major axis: 25397 km
RCS: Unknown
Launch date: October 31, 2010
Source: People's Republic of China (PRC)
Launch site: Xichang Space Center, China (XSC)

Note: This is SATELLITE DEBRIS
Your satellite tracking list
Your tracking list is empty




NASA's NSSDC Master Catalog

Two Line Element Set (TLE):
1 39339U 10057D   24099.82845976 -.00000025  00000-0 -14603-2 0  9998
2 39339  20.3761 152.2692 7197956 110.5853   6.0741  2.14490698 82159
Source of the keplerian elements: AFSPC